Location: Unspecified
(0.0000°N, 0.0000°E)
Time: 01:22:46
(UTC+00:00)

A-11 Canister half - Pass Details

Date: 19 November 2019
Orbit: 1515 x 1685 km, 47.2° (Epoch: 10 December)

Event Time Altitude Azimuth Distance (km) Brightness Sun altitude
Rises 13:39:39 0° 207° (SSW) 4,719 12.0 55.9°
Reaches altitude 10° 13:42:52 10° 201° (SSW) 3,755 11.7 55.2°
Maximum altitude 13:51:55 47° 130° (SE) 2,024 10.1 53.4°
Drops below altitude 10° 14:01:15 10° 59° (ENE) 3,876 10.8 51.4°
Sets 14:04:35 0° 53° (NE) 4,881 11.3 50.7°
